E25HML-13 Weather Reports


time (UTC)temp
C
wind
direction
speed
KPH
gust
KPH
rain 1hr
cm
rain 24hr
cm
rain mn
cm
humidity
%
barometer
mb
20260504110332 33 0.0 0.0 0.00 0.00 0.00 61 1003.8
20260504100332 34 0.0 0.0 0.00 0.00 0.00 54 1002.8
20260504081831 37 0.0 0.0 0.00 0.00 0.00 53 1003.2
20260504081331 37 0.0 0.0 0.00 0.00 0.00 53 1003.1
20260504080832 37 0.0 0.0 0.00 0.00 0.00 53 1003.3
20260504080332 36 0.0 0.0 0.00 0.00 0.00 53 1003.3
20260504070331 36 0.0 0.0 0.00 0.00 0.00 55 1004.8
20260504050330 35 0.0 0.0 0.00 0.00 0.00 58 1007.4
20260504045830 35 0.0 0.0 0.00 0.00 0.00 58 1007.4
20260504045331 35 0.0 0.0 0.00 0.00 0.00 58 1007.4
20260504044831 35 0.0 0.0 0.00 0.00 0.00 59 1007.5
20260504044331 35 0.0 0.0 0.00 0.00 0.00 59 1007.4
20260504043831 34 0.0 0.0 0.00 0.00 0.00 60 1007.5
20260504043331 35 0.0 0.0 0.00 0.00 0.00 60 1007.7
20260504042831 34 0.0 0.0 0.00 0.00 0.00 60 1007.7
20260504042330 34 0.0 0.0 0.00 0.00 0.00 60 1007.6
20260504041830 34 0.0 0.0 0.00 0.00 0.00 60 1007.8
20260504041331 34 0.0 0.0 0.00 0.00 0.00 60 1007.8
20260504040831 34 0.0 0.0 0.00 0.00 0.00 60 1007.9
20260504040331 34 0.0 0.0 0.00 0.00 0.00 60 1007.8
20260504035831 34 0.0 0.0 0.00 0.00 0.00 59 1007.8
20260504035331 34 0.0 0.0 0.00 0.00 0.00 59 1007.9
20260504034831 34 0.0 0.0 0.00 0.00 0.00 60 1007.9
20260504034330 34 0.0 0.0 0.00 0.00 0.00 60 1008.0
20260504033830 34 0.0 0.0 0.00 0.00 0.00 60 1008.0
20260504033330 34 0.0 0.0 0.00 0.00 0.00 60 1008.0
20260504032831 34 0.0 0.0 0.00 0.00 0.00 60 1008.1
20260504032331 34 0.0 0.0 0.00 0.00 0.00 61 1008.1
20260504031831 34 0.0 0.0 0.00 0.00 0.00 62 1008.1
20260504031331 33 0.0 0.0 0.00 0.00 0.00 62 1008.1
20260504030830 33 0.0 0.0 0.00 0.00 0.00 62 1008.2
20260504030331 33 0.0 0.0 0.00 0.00 0.00 62 1008.3
20260504025831 33 0.0 0.0 0.00 0.00 0.00 63 1008.2
20260504025331 33 0.0 0.0 0.00 0.00 0.00 63 1008.3
20260504024831 33 0.0 0.0 0.00 0.00 0.00 64 1008.4
20260504024331 33 0.0 0.0 0.00 0.00 0.00 64 1008.4
20260504023831 33 0.0 0.0 0.00 0.00 0.00 64 1008.5
20260504023330 33 0.0 0.0 0.00 0.00 0.00 64 1008.5
20260504022830 33 0.0 0.0 0.00 0.00 0.00 64 1008.5
20260504022330 33 0.0 0.0 0.00 0.00 0.00 64 1008.5
20260504021831 33 0.0 0.0 0.00 0.00 0.00 64 1008.4
20260504021331 33 0.0 0.0 0.00 0.00 0.00 65 1008.4
20260504020830 33 0.0 0.0 0.00 0.00 0.00 65 1008.3
20260504020331 33 0.0 0.0 0.00 0.00 0.00 65 1008.3
20260504015831 33 0.0 0.0 0.00 0.00 0.00 65 1008.3
20260504015331 33 0.0 0.0 0.00 0.00 0.00 65 1008.3
20260504014831 33 0.0 0.0 0.00 0.00 0.00 65 1008.4
20260504014330 33 0.0 0.0 0.00 0.00 0.00 65 1008.3
20260504013830 33 0.0 0.0 0.00 0.00 0.00 63 1008.3
20260504013331 33 0.0 0.0 0.00 0.00 0.00 63 1008.1
20260504012831 34 0.0 0.0 0.00 0.00 0.00 61 1008.1
20260504012330 33 0.0 0.0 0.00 0.00 0.00 63 1008.0
20260504011830 33 0.0 0.0 0.00 0.00 0.00 62 1008.1
20260504011330 33 0.0 0.0 0.00 0.00 0.00 63 1008.1
20260504010830 33 0.0 0.0 0.00 0.00 0.00 61 1008.1
20260504010330 33 0.0 0.0 0.00 0.00 0.00 62 1008.1
20260504005831 32 0.0 0.0 0.00 0.00 0.00 63 1008.1
20260504005330 33 0.0 0.0 0.00 0.00 0.00 62 1008.0
20260504004830 34 0.0 0.0 0.00 0.00 0.00 58 1007.9
20260504004330 34 0.0 0.0 0.00 0.00 0.00 59 1007.8
20260504003830 33 0.0 0.0 0.00 0.00 0.00 61 1007.7
20260504003330 33 0.0 0.0 0.00 0.00 0.00 59 1007.6
20260504002830 35 0.0 0.0 0.00 0.00 0.00 55 1007.5
20260504002330 35 0.0 0.0 0.00 0.00 0.00 54 1007.4
20260504001830 35 0.0 0.0 0.00 0.00 0.00 54 1007.3
20260504001330 36 0.0 0.0 0.00 0.00 0.00 54 1007.2
20260504000830 35 0.0 0.0 0.00 0.00 0.00 55 1007.1
20260504000330 35 0.0 0.0 0.00 0.00 0.00 55 1007.1
20260503235830 35 0.0 0.0 0.00 0.00 0.00 56 1007.1
20260503235330 35 0.0 0.0 0.00 0.00 0.00 55 1007.0
20260503234830 35 0.0 0.0 0.00 0.00 0.00 56 1007.0
20260503234330 35 0.0 0.0 0.00 0.00 0.00 56 1006.9
20260503233830 35 0.0 0.0 0.00 0.00 0.00 56 1006.8
20260503233330 35 0.0 0.0 0.00 0.00 0.00 56 1006.8
20260503232830 35 0.0 0.0 0.00 0.00 0.00 55 1006.7
20260503232330 35 0.0 0.0 0.00 0.00 0.00 56 1006.6
20260503231830 35 0.0 0.0 0.00 0.00 0.00 56 1006.6
20260503231330 35 0.0 0.0 0.00 0.00 0.00 56 1006.5
20260503230830 35 0.0 0.0 0.00 0.00 0.00 55 1006.4
20260503230330 35 0.0 0.0 0.00 0.00 0.00 56 1006.3
20260503225830 35 0.0 0.0 0.00 0.00 0.00 57 1006.3
20260503225330 35 0.0 0.0 0.00 0.00 0.00 56 1006.1
20260503224830 35 0.0 0.0 0.00 0.00 0.00 57 1006.2
20260503224330 35 0.0 0.0 0.00 0.00 0.00 56 1006.2
20260503223830 35 0.0 0.0 0.00 0.00 0.00 56 1006.1
20260503223330 35 0.0 0.0 0.00 0.00 0.00 56 1005.9
20260503222830 35 0.0 0.0 0.00 0.00 0.00 56 1005.8
20260503222330 35 0.0 0.0 0.00 0.00 0.00 56 1005.7
20260503221830 35 0.0 0.0 0.00 0.00 0.00 57 1005.7
20260503221330 35 0.0 0.0 0.00 0.00 0.00 56 1005.7
20260503220831 35 0.0 0.0 0.00 0.00 0.00 56 1005.6
20260503220331 35 0.0 0.0 0.00 0.00 0.00 56 1005.5
20260503215830 35 0.0 0.0 0.00 0.00 0.00 56 1005.4
20260503215330 35 0.0 0.0 0.00 0.00 0.00 56 1005.3
20260503214830 35 0.0 0.0 0.00 0.00 0.00 56 1005.3
20260503214330 35 0.0 0.0 0.00 0.00 0.00 56 1005.3
20260503213829 35 0.0 0.0 0.00 0.00 0.00 56 1005.3
20260503213330 35 0.0 0.0 0.00 0.00 0.00 56 1005.2
20260503212830 36 0.0 0.0 0.00 0.00 0.00 54 1005.1
20260503212330 35 0.0 0.0 0.00 0.00 0.00 56 1005.1
20260503211829 35 0.0 0.0 0.00 0.00 0.00 56 1005.1
20260503211330 35 0.0 0.0 0.00 0.00 0.00 56 1005.1
20260503210830 35 0.0 0.0 0.00 0.00 0.00 56 1005.1
20260503210329 35 0.0 0.0 0.00 0.00 0.00 55 1005.0
20260503205829 36 0.0 0.0 0.00 0.00 0.00 54 1005.1
20260503205329 35 0.0 0.0 0.00 0.00 0.00 56 1004.9
20260503204831 35 0.0 0.0 0.00 0.00 0.00 56 1005.0
20260503204330 35 0.0 0.0 0.00 0.00 0.00 55 1005.0
20260503203830 35 0.0 0.0 0.00 0.00 0.00 56 1004.9
20260503203330 35 0.0 0.0 0.00 0.00 0.00 56 1004.9
20260503202830 35 0.0 0.0 0.00 0.00 0.00 56 1004.9
20260503202330 35 0.0 0.0 0.00 0.00 0.00 55 1004.9
20260503201830 35 0.0 0.0 0.00 0.00 0.00 55 1005.0
20260503201330 35 0.0 0.0 0.00 0.00 0.00 56 1005.0
20260503200829 35 0.0 0.0 0.00 0.00 0.00 56 1004.9
20260503200330 36 0.0 0.0 0.00 0.00 0.00 53 1005.0
20260503195830 36 0.0 0.0 0.00 0.00 0.00 53 1005.0
20260503195330 36 0.0 0.0 0.00 0.00 0.00 53 1005.1
20260503194830 36 0.0 0.0 0.00 0.00 0.00 53 1005.1
20260503194329 36 0.0 0.0 0.00 0.00 0.00 53 1005.1
20260503193829 36 0.0 0.0 0.00 0.00 0.00 53 1005.1
20260503193329 37 0.0 0.0 0.00 0.00 0.00 53 1005.2
20260503192829 37 0.0 0.0 0.00 0.00 0.00 53 1005.3
20260503192329 37 0.0 0.0 0.00 0.00 0.00 52 1005.3
20260503191829 36 0.0 0.0 0.00 0.00 0.00 52 1005.3
20260503191329 37 0.0 0.0 0.00 0.00 0.00 52 1005.3
20260503190829 36 0.0 0.0 0.00 0.00 0.00 52 1005.3
20260503190330 36 0.0 0.0 0.00 0.00 0.00 52 1005.4
20260503185830 37 0.0 0.0 0.00 0.00 0.00 52 1005.5
20260503185330 37 0.0 0.0 0.00 0.00 0.00 52 1005.5
20260503184829 37 0.0 0.0 0.00 0.00 0.00 51 1005.5
20260503184329 37 0.0 0.0 0.00 0.00 0.00 51 1005.6
20260503183829 37 0.0 0.0 0.00 0.00 0.00 51 1005.6
20260503183329 37 0.0 0.0 0.00 0.00 0.00 51 1005.6
20260503182829 37 0.0 0.0 0.00 0.00 0.00 51 1005.7
20260503182329 37 0.0 0.0 0.00 0.00 0.00 50 1005.7
20260503181829 37 0.0 0.0 0.00 0.00 0.00 51 1005.8
20260503181330 37 0.0 0.0 0.00 0.00 0.00 51 1005.9
20260503180830 37 0.0 0.0 0.00 0.00 0.00 51 1005.9
20260503180329 37 0.0 0.0 0.00 0.00 0.00 50 1005.9
20260503175829 37 0.0 0.0 0.00 0.00 0.00 51 1005.9
20260503175329 37 0.0 0.0 0.00 0.00 0.00 50 1005.8
20260503174829 37 0.0 0.0 0.00 0.00 0.00 50 1005.8
20260503174329 37 0.0 0.0 0.00 0.00 0.00 49 1005.8
20260503173830 37 0.0 0.0 0.00 0.00 0.00 51 1005.9
20260503173328 38 0.0 0.0 0.00 0.00 0.00 48 1005.9
20260503172829 38 0.0 0.0 0.00 0.00 0.00 48 1005.9
20260503172330 37 0.0 0.0 0.00 0.00 0.00 49 1005.9
20260503171830 38 0.0 0.0 0.00 0.00 0.00 48 1006.0
20260503171329 38 0.0 0.0 0.00 0.00 0.00 48 1006.0
20260503170829 38 0.0 0.0 0.00 0.00 0.00 48 1006.1
20260503170329 38 0.0 0.0 0.00 0.00 0.00 47 1006.1
20260503150828 35 0.0 0.0 0.00 0.00 0.00 55 1004.9
20260503150328 35 0.0 0.0 0.00 0.00 0.00 55 1004.7
20260503131329 36 0.0 0.0 0.00 0.00 0.00 51 1003.1
20260503130829 36 0.0 0.0 0.00 0.00 0.00 51 1002.9
20260503130329 36 0.0 0.0 0.00 0.00 0.00 50 1002.7